Hoquiam, WA

2:34 PM PST on February 23, 2017 (GMT -0800)
Bowerman

Weather History for KHQM - January, 2013

Change the Weather History Date:

Tuesday, January 29, 2013

  Actual Average Record
Temperature  
Mean Temperature 45 °F 43 °F  
Max Temperature 46 °F 48 °F 57 °F (2015)
Min Temperature 44 °F 38 °F 17 °F (1980)
Degree Days  
Heating Degree Days 20 22  
Month to date heating degree days 649  
Cooling Degree Days 0 0  
Month to date cooling degree days 0  
Year to date cooling degree days 0  
Moisture  
Dew Point 45 °F    
Average Humidity 95    
Maximum Humidity 100    
Minimum Humidity 87    
Precipitation  
Precipitation 0.30 in 0.29 in 2.92 in (2006)
Month to date precipitation 9.73  
Year to date precipitation 9.73  
Sea Level Pressure  
Sea Level Pressure 30.33 in    
Wind  
Wind Speed 16 mph (WSW)    
Max Wind Speed 23 mph    
Max Gust Speed 32 mph    
Visibility 5 miles    
Events Rain    
T = Trace of Precipitation, MM = Missing Value Source: NWS Daily Summary

Daily Weather History Graph

Daily Weather History Graph

Search for Another Location

Airport or City:

Trip Planner

Search our weather history database for the weather conditions in past years. The results will help you decide how hot, cold, wet, or windy it might be!

Date:

Astronomy

Jan. 29, 2013 Rise Set
Actual Time 7:43 AM PST 5:14 PM PST
Civil Twilight 7:11 AM PST 5:47 PM PST
Nautical Twilight 6:34 AM PST 6:24 PM PST
Astronomical Twilight 5:58 AM PST 6:59 PM PST
Moon 8:32 PM PST (1/29) 8:29 AM PST (1/29)
Length of Visible Light 10h 36m
Length of Day
9h 30m
Waning Gibbous, 93% of the Moon is Illuminated
Jan 29
Waning Gibbous
Feb 3
Last Quarter
Feb 9
New
Feb 17
First Quarter
Feb 25
Full

Hourly Weather History & Observations

Time (PST) Temp. Windchill Dew Point Humidity Pressure Visibility Wind Dir Wind Speed Gust Speed Precip Events Conditions
12:02 AM 46.4 °F 39.2 °F 42.8 °F 87% 30.16 in 10.0 mi West 18.4 mph 25.3 mph 0.00 in Rain Light Rain
12:53 AM 45.0 °F 37.1 °F 43.0 °F 93% 30.17 in 4.0 mi West 19.6 mph - 0.02 in Rain Light Rain
1:15 AM 46.4 °F 38.7 °F 44.6 °F 93% 30.17 in 6.0 mi West 20.7 mph 32.2 mph 0.01 in Rain Light Rain
1:32 AM 46.4 °F 38.5 °F 44.6 °F 93% 30.17 in 5.0 mi West 21.9 mph - 0.01 in Rain Light Rain
1:53 AM 46.0 °F 38.3 °F 44.1 °F 93% 30.19 in 6.0 mi West 20.7 mph - 0.02 in Rain Light Rain
2:53 AM 46.4 °F 38.3 °F 44.6 °F 93% 30.19 in 5.0 mi West 23.0 mph 28.8 mph N/A Rain Light Rain
3:03 AM 46.4 °F 39.0 °F 44.6 °F 93% 30.20 in 6.0 mi West 19.6 mph 27.6 mph 0.00 in Rain Light Rain
3:16 AM 46.4 °F 38.7 °F 44.6 °F 93% 30.20 in 4.0 mi West 20.7 mph - 0.01 in   Overcast
3:41 AM 46.4 °F 39.8 °F 44.6 °F 93% 30.20 in 4.0 mi West 16.1 mph 24.2 mph 0.01 in   Overcast
3:53 AM 46.0 °F 39.3 °F 44.1 °F 93% 30.22 in 3.0 mi West 16.1 mph 24.2 mph 0.01 in   Overcast
4:40 AM 46.4 °F 39.0 °F 44.6 °F 93% 30.22 in 2.5 mi West 19.6 mph 32.2 mph 0.01 in   Overcast
4:53 AM 46.0 °F 39.0 °F 44.1 °F 93% 30.24 in 3.0 mi West 17.3 mph 25.3 mph 0.01 in Rain Light Rain
5:53 AM 46.0 °F 39.3 °F 44.1 °F 93% 30.25 in 8.0 mi West 16.1 mph - 0.01 in   Overcast
6:53 AM 46.0 °F 39.6 °F 44.1 °F 93% 30.27 in 9.0 mi West 15.0 mph - 0.00 in   Overcast
7:11 AM 46.4 °F 39.5 °F 44.6 °F 93% 30.26 in 10.0 mi West 17.3 mph - N/A   Overcast
7:18 AM 46.4 °F 39.5 °F 44.6 °F 93% 30.26 in 10.0 mi West 17.3 mph 23.0 mph N/A   Overcast
7:53 AM 46.0 °F 38.5 °F 44.1 °F 93% 30.29 in 8.0 mi West 19.6 mph - N/A   Overcast
8:53 AM 46.0 °F 39.9 °F 44.1 °F 93% 30.31 in 8.0 mi West 13.8 mph - N/A   Overcast
9:10 AM 46.4 °F 40.1 °F 44.6 °F 93% 30.30 in 3.0 mi West 15.0 mph - N/A   Overcast
9:18 AM 46.4 °F 39.8 °F 44.6 °F 93% 30.30 in 4.0 mi West 16.1 mph - N/A   Overcast
9:26 AM 46.4 °F 40.1 °F 44.6 °F 93% 30.31 in 5.0 mi West 15.0 mph - N/A   Overcast
9:53 AM 46.0 °F 39.9 °F 45.0 °F 96% 30.33 in 5.0 mi WSW 13.8 mph - N/A   Overcast
10:05 AM 46.4 °F 39.5 °F 44.6 °F 93% 30.33 in 2.0 mi West 17.3 mph 21.9 mph 0.00 in Rain Light Rain
10:16 AM 46.4 °F 41.1 °F 44.6 °F 93% 30.34 in 5.0 mi WSW 11.5 mph - 0.00 in   Overcast
10:53 AM 46.9 °F - 45.0 °F 93% 30.35 in 6.0 mi West 15.0 mph - 0.00 in   Overcast
11:09 AM 46.4 °F 40.4 °F 44.6 °F 93% 30.35 in 2.0 mi West 13.8 mph - N/A   Overcast
11:19 AM 46.4 °F 40.4 °F 44.6 °F 93% 30.36 in 8.0 mi West 13.8 mph - N/A   Overcast
11:53 AM 46.9 °F - 45.0 °F 93% 30.37 in 5.0 mi West 15.0 mph - 0.01 in   Overcast
12:21 PM 46.4 °F 40.7 °F 44.6 °F 93% 30.36 in 7.0 mi West 12.7 mph - N/A   Overcast
12:31 PM 46.4 °F 40.7 °F 44.6 °F 93% 30.36 in 10.0 mi West 12.7 mph - N/A   Overcast
12:47 PM 46.4 °F 40.4 °F 44.6 °F 93% 30.36 in 2.0 mi WSW 13.8 mph - N/A   Overcast
12:53 PM 46.9 °F - 45.0 °F 93% 30.37 in 1.5 mi WSW 11.5 mph - N/A   Overcast
1:05 PM 46.4 °F 40.7 °F 46.4 °F 100% 30.36 in 2.0 mi WSW 12.7 mph - N/A   Overcast
1:20 PM 46.4 °F 41.1 °F 46.4 °F 100% 30.36 in 6.0 mi WSW 11.5 mph - N/A   Overcast
1:53 PM 46.9 °F - 46.0 °F 97% 30.38 in 4.0 mi WSW 11.5 mph - N/A   Overcast
2:01 PM 46.4 °F 40.4 °F 44.6 °F 93% 30.37 in 6.0 mi WSW 13.8 mph - N/A   Overcast
2:17 PM 46.4 °F 41.1 °F 46.4 °F 100% 30.37 in 2.5 mi WSW 11.5 mph - N/A   Overcast
2:30 PM 46.4 °F 41.1 °F 46.4 °F 100% 30.37 in 1.8 mi WSW 11.5 mph - N/A   Overcast
2:43 PM 46.4 °F 40.7 °F 46.4 °F 100% 30.38 in 1.5 mi WSW 12.7 mph - N/A   Overcast
2:53 PM 46.0 °F 41.0 °F 46.0 °F 100% 30.39 in 1.5 mi WSW 10.4 mph - N/A   Overcast
3:16 PM 46.4 °F 40.4 °F 46.4 °F 100% 30.38 in 2.5 mi WSW 13.8 mph - N/A   Overcast
3:22 PM 46.4 °F 40.7 °F 44.6 °F 93% 30.38 in 3.0 mi WSW 12.7 mph - N/A   Overcast
3:35 PM 46.4 °F 39.8 °F 44.6 °F 93% 30.39 in 2.5 mi West 16.1 mph - N/A   Overcast
3:51 PM 46.4 °F 40.4 °F 44.6 °F 93% 30.40 in 1.5 mi WSW 13.8 mph 21.9 mph N/A   Overcast
3:53 PM 46.0 °F 39.9 °F 45.0 °F 96% 30.40 in 1.5 mi WSW 13.8 mph 21.9 mph N/A   Overcast
4:11 PM 46.4 °F 40.7 °F 44.6 °F 93% 30.39 in 2.5 mi WSW 12.7 mph - N/A   Overcast
4:24 PM 46.4 °F 41.1 °F 44.6 °F 93% 30.39 in 4.0 mi WSW 11.5 mph - N/A   Overcast
4:53 PM 46.0 °F 40.6 °F 45.0 °F 96% 30.41 in 8.0 mi WSW 11.5 mph - N/A   Overcast
5:09 PM 46.4 °F 41.5 °F 44.6 °F 93% 30.40 in 10.0 mi WSW 10.4 mph - N/A   Overcast
5:34 PM 46.4 °F 41.1 °F 44.6 °F 93% 30.40 in 8.0 mi WSW 11.5 mph - N/A   Overcast
5:49 PM 46.4 °F 41.1 °F 44.6 °F 93% 30.41 in 10.0 mi WSW 11.5 mph - N/A   Overcast
5:53 PM 46.0 °F 40.6 °F 44.1 °F 93% 30.41 in 10.0 mi WSW 11.5 mph - N/A   Overcast
6:53 PM 46.0 °F 41.4 °F 44.1 °F 93% 30.42 in 10.0 mi SW 9.2 mph - N/A   Overcast
7:18 PM 44.6 °F 38.1 °F 42.8 °F 93% 30.41 in 3.0 mi SSW 13.8 mph - 0.01 in   Overcast
7:26 PM 44.6 °F 38.4 °F 44.6 °F 100% 30.41 in 2.5 mi SW 12.7 mph - 0.01 in Rain Light Rain
7:38 PM 44.6 °F 39.7 °F 44.6 °F 100% 30.41 in 2.0 mi SW 9.2 mph - 0.02 in Rain Light Rain
7:53 PM 45.0 °F 40.6 °F 45.0 °F 100% 30.42 in 2.5 mi SW 8.1 mph - 0.04 in Rain Light Rain
8:00 PM 44.6 °F 40.7 °F 44.6 °F 100% 30.41 in 3.0 mi SW 6.9 mph - 0.01 in Rain Light Rain
8:27 PM 44.6 °F 42.2 °F 44.6 °F 100% 30.40 in 2.5 mi SSW 4.6 mph - 0.03 in Rain Light Rain
8:53 PM 45.0 °F 41.8 °F 44.1 °F 97% 30.40 in 2.5 mi South 5.8 mph - 0.06 in Rain Light Rain
9:02 PM 46.4 °F 41.5 °F 44.6 °F 93% 30.37 in 3.0 mi South 10.4 mph - 0.01 in Rain Light Rain
9:53 PM 46.9 °F - 46.0 °F 97% 30.37 in 4.0 mi SSW 17.3 mph - 0.04 in Rain Light Rain
10:11 PM 46.4 °F 39.2 °F 46.4 °F 100% 30.35 in 5.0 mi SSW 18.4 mph - N/A   Overcast
10:53 PM 46.9 °F - 46.0 °F 97% 30.37 in 2.5 mi SSW 17.3 mph - 0.02 in   Overcast
11:01 PM 46.4 °F 40.1 °F 46.4 °F 100% 30.35 in 3.0 mi SSW 15.0 mph - 0.01 in Rain Light Rain
11:44 PM 46.4 °F 39.8 °F 46.4 °F 100% 30.35 in 2.5 mi SW 16.1 mph - 0.05 in Rain Rain
11:53 PM 46.9 °F - 46.9 °F 100% 30.37 in 4.0 mi SW 16.1 mph - 0.06 in Rain Light Rain